CDT,Max TemperatureF,Mean TemperatureF,Min TemperatureF,Max Dew PointF,MeanDew PointF,Min DewpointF,Max Humidity, Mean Humidity, Min Humidity, Max Sea Level PressureIn, Mean Sea Level PressureIn, Min Sea Level PressureIn, Max VisibilityMiles, Mean VisibilityMiles, Min VisibilityMiles, Max Wind SpeedMPH, Mean Wind SpeedMPH, Max Gust SpeedMPH,PrecipitationIn, CloudCover, Events, WindDirDegrees
2013-3-1,41,37,33,32,28,25,93,71,56,30.07,30.04,30.01,5,4,2,9,3,17,0.00,7,Rain-Snow,286
2013-3-2,37,34,32,32,27,23,100,77,65,30.12,30.07,30.01,5,3,2,14,6,20,0.00,7,Rain-Snow,323
2013-3-3,42,35,26,23,19,12,80,58,31,30.16,30.12,30.09,6,4,2,12,5,18,0.00,3,Rain-Snow,338
2013-3-4,55,40,26,36,25,19,86,53,30,30.19,30.08,29.95,5,4,0,9,2,17,0.00,3,,184
2013-3-5,60,48,35,55,42,23,94,74,51,30.02,29.91,29.67,,,,22,8,41,0.35,8,Rain-Snow-Thunderstorm,248
2013-3-6,42,36,30,27,23,18,80,59,48,30.27,30.18,30.02,,,,17,9,29,0.00,6,Rain,338
2013-3-7,53,42,30,30,27,25,81,64,38,30.35,30.29,30.25,,,,10,5,,0.00,2,,22
2013-3-8,60,46,32,32,27,14,81,58,16,30.38,30.31,30.25,,,,13,6,18,0.00,1,,44
2013-3-9,64,50,37,32,31,28,81,48,30,30.29,30.21,30.12,,,,12,4,24,0.00,1,,149
2013-3-10,71,63,55,45,36,30,46,37,28,30.14,30.04,29.94,,,,15,8,25,0.00,3,,179
2013-3-11,64,52,39,54,45,32,100,78,42,29.97,29.89,29.81,,,,16,8,29,0.84,6,Rain,226
2013-3-12,57,47,37,34,30,28,81,58,36,30.17,30.07,29.97,,,,13,6,22,0.00,3,,338
2013-3-13,50,41,32,32,24,18,93,53,30,30.37,30.25,30.15,,,,16,5,25,0.00,1,,331
2013-3-14,53,40,26,34,19,10,81,46,21,30.44,30.35,30.26,,,,12,6,17,0.00,4,,19
2013-3-15,75,54,32,45,37,30,100,60,29,30.27,30.10,29.96,,,,17,4,30,0.00,2,,226
2013-3-16,75,65,55,48,43,41,63,46,31,29.99,29.93,29.87,,,,18,9,26,0.00,2,,226
2013-3-17,68,60,51,54,48,45,82,65,46,30.00,29.93,29.87,,,,16,6,28,0.00,3,,222
2013-3-18,66,58,51,59,55,50,100,84,72,29.89,29.85,29.77,,,,24,8,48,0.19,8,Rain-Thunderstorm,208
2013-3-19,60,48,35,50,31,19,100,53,23,30.15,30.10,30.02,,,,15,7,20,0.00,1,,10
2013-3-20,57,46,35,32,23,16,81,46,21,30.17,30.08,29.97,,,,16,3,29,0.00,4,,313
2013-3-21,46,36,26,28,15,7,70,43,23,30.09,30.02,29.95,,,,13,7,21,0.00,1,,2
2013-3-22,48,42,37,37,26,19,71,51,42,30.07,30.01,29.98,,,,9,3,,0.00,8,,59
2013-3-23,50,46,41,48,43,32,100,92,57,29.99,29.90,29.73,,,,10,5,,0.85,8,Rain-Thunderstorm,39
2013-3-24,60,50,39,54,45,25,100,80,53,29.79,29.63,29.46,,,,21,7,39,0.93,7,Rain-Thunderstorm,237
2013-3-25,39,36,33,25,22,19,70,57,48,30.14,29.98,29.79,,,,18,12,33,0.00,8,Rain-Snow,288
2013-3-26,39,36,32,28,25,23,87,64,52,30.35,30.24,30.13,,,,12,7,18,0.00,8,Snow,318
2013-3-27,53,40,26,32,26,23,93,62,33,30.40,30.34,30.28,,,,13,2,17,0.00,2,,333
2013-3-28,62,47,32,36,30,27,100,62,26,30.39,30.32,30.26,,,,12,1,16,0.00,2,,6
2013-3-29,59,47,35,37,35,32,93,62,39,30.34,30.27,30.18,,,,10,3,,0.00,7,Rain,43
2013-3-30,68,57,46,55,46,37,100,76,45,30.20,30.12,29.99,,,,9,4,21,0.53,5,Rain,77
2013-3-31,64,60,55,59,56,54,100,93,73,29.98,29.95,29.91,,,,9,4,,0.24,7,Rain,231